Terug naar catalogus

SPOQC

ActiefWetenschapSSO
NORAD 68423·PAYLOAD·🇳🇱 Netherlands

Gelanceerd Mar 30, 2026 vanaf Vandenberg Space Force Base

Loading…

Volgende Passages (komende 24 uur)

TLE

VersSource: Space-Track

Epoch: Sep 13, 2026, 20:06 UTC

1 68423U 26067H   26256.83759977  .00004335  00000-0  20713-3 0  9991
2 68423  97.4607 214.1650 0001688  69.4141 290.7275 15.19549798 25406

Volg SPOQC in realtime met AllMySat

Download on the App Store